NG7M Weather Reports


time (UTC)temp
C
wind
direction
speed
KPH
gust
KPH
rain 1hr
cm
rain 24hr
cm
rain mn
cm
humidity
%
barometer
mb
20260505093503 14 157 0.0 0.0 0.00 0.00 0.00 53 1007.6
20260505093004 14 146 0.0 0.0 0.00 0.00 0.00 53 1007.6
20260505092004 14 147 0.0 0.0 0.00 0.00 0.00 52 1007.7
20260505091504 14 156 0.0 0.0 0.00 0.00 0.00 52 1007.7
20260505091004 14 155 0.0 0.0 0.00 0.00 0.00 52 1007.6
20260505090503 14 145 0.0 0.0 0.00 0.00 0.00 52 1007.6
20260505090004 13 149 0.0 0.0 0.00 0.00 0.00 53 1007.6
20260505085503 13 157 0.0 0.0 0.00 0.00 0.00 53 1007.7
20260505085004 13 146 0.0 0.0 0.00 0.00 0.00 52 1007.7
20260505084504 13 145 0.0 0.0 0.00 0.00 0.00 52 1007.7
20260505084003 14 145 0.0 0.0 0.00 0.00 0.00 52 1007.7
20260505083504 14 140 0.0 0.0 0.00 0.00 0.00 51 1007.9
20260505083003 14 140 0.0 0.0 0.00 0.00 0.00 51 1007.9
20260505082503 14 158 0.0 0.0 0.00 0.00 0.00 50 1007.9
20260505082003 14 135 0.0 0.0 0.00 0.00 0.00 50 1007.9
20260505081503 14 141 0.0 0.0 0.00 0.00 0.00 50 1007.9
20260505081004 14 122 0.0 0.0 0.00 0.00 0.00 50 1008.1
20260505080504 14 143 0.0 0.0 0.00 0.00 0.00 51 1008.1
20260505080003 14 123 0.0 0.0 0.00 0.00 0.00 52 1008.1
20260505075504 14 130 0.0 0.0 0.00 0.00 0.00 53 1008.1
20260505075003 14 142 0.0 0.0 0.00 0.00 0.00 53 1008.1
20260505074504 14 132 0.0 0.0 0.00 0.00 0.00 53 1008.1
20260505074004 14 127 0.0 0.0 0.00 0.00 0.00 53 1008.3
20260505073503 14 134 0.0 0.0 0.00 0.00 0.00 52 1008.3
20260505073004 14 156 0.0 0.0 0.00 0.00 0.00 52 1008.3
20260505072503 14 142 0.0 0.0 0.00 0.00 0.00 52 1008.3
20260505072003 14 141 0.0 0.0 0.00 0.00 0.00 53 1008.3
20260505071004 14 131 0.0 0.0 0.00 0.00 0.00 54 1008.5
20260505070504 14 152 0.0 0.0 0.00 0.00 0.00 53 1008.4
20260505070004 14 135 0.0 0.0 0.00 0.00 0.00 53 1008.4
20260505065503 15 132 0.0 0.0 0.00 0.00 0.00 52 1008.4
20260505065003 15 141 0.0 0.0 0.00 0.00 0.00 52 1008.4
20260505064503 15 141 0.0 0.0 0.00 0.00 0.00 52 1008.4
20260505064003 15 141 0.0 0.0 0.00 0.00 0.00 52 1008.4
20260505063504 14 149 0.0 0.0 0.00 0.00 0.00 53 1008.4
20260505063004 14 156 0.0 0.0 0.00 0.00 0.00 54 1008.4
20260505062505 14 172 0.0 0.0 0.00 0.00 0.00 54 1008.1
20260505062004 15 212 0.0 0.0 0.00 0.00 0.00 54 1008.1
20260505061505 15 167 0.0 0.0 0.00 0.00 0.00 53 1008.1
20260505061004 15 153 0.0 0.0 0.00 0.00 0.00 52 1008.1
20260505060504 15 148 0.0 0.0 0.00 0.00 0.00 52 1008.1
20260505060004 15 150 0.0 0.0 0.00 0.00 0.00 52 1007.6
20260505055503 15 143 0.0 0.0 0.00 0.00 0.00 51 1007.6
20260505055004 15 152 0.0 0.0 0.00 0.00 0.00 50 1007.6
20260505053004 15 158 0.0 0.0 0.00 0.00 0.00 45 1007.3
20260505052503 15 138 0.0 0.0 0.00 0.00 0.00 45 1007.2
20260505051504 16 137 0.0 0.0 0.00 0.00 0.00 45 1007.2
20260505051003 16 138 0.0 0.0 0.00 0.00 0.00 44 1007.1
20260505050503 16 139 0.0 0.0 0.00 0.00 0.00 44 1007.1
20260505041504 17 150 0.0 0.0 0.00 0.00 0.00 37 1006.4
20260505041003 17 144 0.0 0.0 0.00 0.00 0.00 37 1006.3
20260505040504 17 142 0.0 0.0 0.00 0.00 0.00 37 1006.3
20260505040004 17 138 0.0 0.0 0.00 0.00 0.00 37 1006.3
20260505035504 17 135 0.0 0.0 0.00 0.00 0.00 37 1006.2
20260505035003 17 143 0.0 0.0 0.00 0.00 0.00 37 1005.9
20260505034503 17 142 0.0 0.0 0.00 0.00 0.00 37 1005.9
20260505034004 17 150 0.0 0.0 0.00 0.00 0.00 37 1005.8
20260505033503 17 165 0.0 0.0 0.00 0.00 0.00 36 1005.8
20260505033004 18 164 0.0 0.0 0.00 0.00 0.00 36 1005.8
20260505032504 18 159 0.0 0.0 0.00 0.00 0.00 33 1005.8
20260505032004 18 172 0.0 0.0 0.00 0.00 0.00 32 1005.4
20260505031504 18 167 0.0 0.0 0.00 0.00 0.00 30 1005.4
20260505031003 18 168 0.0 0.0 0.00 0.00 0.00 29 1005.4
20260505030504 18 169 0.0 0.0 0.00 0.00 0.00 30 1005.3
20260505030003 18 167 0.0 0.0 0.00 0.00 0.00 30 1005.2
20260505025504 18 167 0.0 0.0 0.00 0.00 0.00 29 1005.2
20260505024003 19 169 0.0 0.0 0.00 0.00 0.00 29 1005.1
20260505023504 19 165 0.0 0.0 0.00 0.00 0.00 28 1005.1
20260505023004 19 178 0.0 0.0 0.00 0.00 0.00 28 1005.1
20260505022504 20 176 0.0 0.0 0.00 0.00 0.00 28 1005.1
20260505022003 20 171 0.0 0.0 0.00 0.00 0.00 28 1004.9
20260505020504 20 169 0.0 0.0 0.00 0.00 0.00 29 1004.8
20260505020003 20 177 0.0 0.0 0.00 0.00 0.00 28 1004.7
20260505015004 21 169 0.0 0.0 0.00 0.00 0.00 26 1004.5
20260505014504 21 178 0.0 0.0 0.00 0.00 0.00 26 1004.5
20260505014003 21 188 0.0 0.0 0.00 0.00 0.00 25 1004.5
20260505013503 21 168 0.0 0.0 0.00 0.00 0.00 24 1004.5
20260505013004 21 165 0.0 0.0 0.00 0.00 0.00 24 1004.7
20260505012503 22 170 0.0 0.0 0.00 0.00 0.00 23 1004.7
20260505012004 22 158 0.0 0.0 0.00 0.00 0.00 23 1004.8
20260505011503 22 155 0.0 0.0 0.00 0.00 0.00 23 1005.0
20260505011004 22 174 0.0 0.0 0.00 0.00 0.00 23 1005.0
20260505010503 22 168 0.0 0.0 0.00 0.00 0.00 23 1005.1
20260505010004 22 160 0.0 0.0 0.00 0.00 0.00 23 1005.2
20260505005503 22 167 0.0 0.0 0.00 0.00 0.00 24 1005.2
20260505005004 22 168 0.0 0.0 0.00 0.00 0.00 23 1005.2
20260505004503 22 142 0.0 0.0 0.00 0.00 0.00 24 1005.2
20260505003503 22 164 0.0 0.0 0.00 0.00 0.00 24 1005.2
20260505003003 22 168 0.0 0.0 0.00 0.00 0.00 24 1005.3
20260505002503 22 173 0.0 0.0 0.00 0.00 0.00 24 1005.3
20260505001503 22 157 0.0 0.0 0.00 0.00 0.00 24 1005.3
20260505001003 22 171 0.0 0.0 0.00 0.00 0.00 24 1005.4
20260505000504 22 171 0.0 0.0 0.00 0.00 0.00 24 1005.5
20260505000004 22 192 0.0 0.0 0.00 0.00 0.00 23 1005.5
20260504235503 22 199 0.0 0.0 0.00 0.00 0.00 21 1005.5
20260504235004 22 182 0.0 0.0 0.00 0.00 0.00 22 1005.5
20260504234503 22 213 0.0 0.0 0.00 0.00 0.00 22 1005.5
20260504234004 22 207 0.0 0.0 0.00 0.00 0.00 21 1005.5
20260504233504 23 209 0.0 0.0 0.00 0.00 0.00 22 1005.5
20260504233004 23 202 0.0 0.0 0.00 0.00 0.00 21 1005.6
20260504232004 22 204 0.0 0.0 0.00 0.00 0.00 21 1005.6
20260504231004 23 220 0.0 0.0 0.00 0.00 0.00 20 1005.6
20260504230504 23 226 0.0 0.0 0.00 0.00 0.00 20 1005.6
20260504225504 23 198 0.0 0.0 0.00 0.00 0.00 20 1005.6
20260504224504 22 229 0.0 0.0 0.00 0.00 0.00 22 1005.6
20260504224004 22 230 0.0 0.0 0.00 0.00 0.00 22 1005.6
20260504223503 22 222 0.0 0.0 0.00 0.00 0.00 24 1005.6
20260504223004 22 206 0.0 0.0 0.00 0.00 0.00 24 1005.7
20260504222504 23 228 0.0 0.0 0.00 0.00 0.00 23 1005.7
20260504222004 22 220 0.0 0.0 0.00 0.00 0.00 23 1005.7
20260504221503 22 207 0.0 0.0 0.00 0.00 0.00 25 1005.7
20260504220004 23 200 0.0 0.0 0.00 0.00 0.00 17 1005.8
20260504215504 23 242 0.0 0.0 0.00 0.00 0.00 17 1006.0
20260504215004 24 238 0.0 0.0 0.00 0.00 0.00 17 1006.0
20260504214503 24 266 0.0 0.0 0.00 0.00 0.00 18 1006.0
20260504214004 24 262 0.0 0.0 0.00 0.00 0.00 17 1006.0
20260504213004 24 258 0.0 0.0 0.00 0.00 0.00 18 1006.1
20260504212503 24 286 0.0 0.0 0.00 0.00 0.00 17 1006.4
20260504212004 24 263 0.0 0.0 0.00 0.00 0.00 18 1006.4
20260504211503 24 265 0.0 0.0 0.00 0.00 0.00 18 1006.4
20260504211004 25 268 0.0 0.0 0.00 0.00 0.00 18 1006.4
20260504210504 24 278 0.0 0.0 0.00 0.00 0.00 17 1006.4
20260504210004 25 250 0.0 0.0 0.00 0.00 0.00 17 1006.4
20260504205503 24 277 0.0 0.0 0.00 0.00 0.00 19 1006.5
20260504205004 25 259 0.0 0.0 0.00 0.00 0.00 17 1006.5
20260504204503 25 218 0.0 0.0 0.00 0.00 0.00 17 1006.8
20260504203504 23 256 0.0 0.0 0.00 0.00 0.00 19 1006.8
20260504203004 23 310 0.0 0.0 0.00 0.00 0.00 17 1006.9
20260504202504 24 284 0.0 0.0 0.00 0.00 0.00 18 1006.9
20260504202004 24 358 0.0 0.0 0.00 0.00 0.00 17 1006.9
20260504201504 24 338 0.0 0.0 0.00 0.00 0.00 18 1007.0
20260504201004 24 283 0.0 0.0 0.00 0.00 0.00 18 1007.0
20260504200503 23 303 0.0 0.0 0.00 0.00 0.00 19 1007.0
20260504200004 23 332 0.0 0.0 0.00 0.00 0.00 18 1007.0
20260504195503 23 352 0.0 0.0 0.00 0.00 0.00 18 1007.0
20260504195004 23 264 0.0 0.0 0.00 0.00 0.00 19 1007.0
20260504194503 23 300 0.0 0.0 0.00 0.00 0.00 20 1007.2
20260504194004 23 260 0.0 0.0 0.00 0.00 0.00 20 1007.2
20260504193004 23 255 0.0 0.0 0.00 0.00 0.00 21 1007.7
20260504192503 23 330 0.0 0.0 0.00 0.00 0.00 21 1007.7
20260504192004 23 303 0.0 0.0 0.00 0.00 0.00 22 1007.3
20260504191503 23 231 0.0 0.0 0.00 0.00 0.00 21 1007.3
20260504191004 23 300 0.0 0.0 0.00 0.00 0.00 22 1007.7
20260504190504 23 304 0.0 0.0 0.00 0.00 0.00 22 1007.7
20260504190003 24 235 0.0 0.0 0.00 0.00 0.00 21 1007.7
20260504185504 23 323 0.0 0.0 0.00 0.00 0.00 21 1007.7
20260504185003 23 285 0.0 0.0 0.00 0.00 0.00 23 1007.8
20260504184004 23 258 0.0 0.0 0.00 0.00 0.00 20 1007.8
20260504183003 22 263 0.0 0.0 0.00 0.00 0.00 20 1008.1
20260504182003 23 235 0.0 0.0 0.00 0.00 0.00 21 1008.2
20260504181504 23 226 0.0 0.0 0.00 0.00 0.00 20 1008.3
20260504181004 23 203 0.0 0.0 0.00 0.00 0.00 23 1008.3
20260504180503 22 262 0.0 0.0 0.00 0.00 0.00 21 1008.2
20260504180004 22 250 0.0 0.0 0.00 0.00 0.00 22 1008.2
20260504175503 22 155 0.0 0.0 0.00 0.00 0.00 22 1008.8
20260504175004 22 175 0.0 0.0 0.00 0.00 0.00 25 1008.8
20260504174503 22 235 0.0 0.0 0.00 0.00 0.00 23 1008.8
20260504173504 22 133 0.0 0.0 0.00 0.00 0.00 23 1008.8
20260504172504 21 143 0.0 0.0 0.00 0.00 0.00 24 1008.7
20260504172004 21 218 0.0 0.0 0.00 0.00 0.00 24 1008.7
20260504171503 21 168 0.0 0.0 0.00 0.00 0.00 25 1008.7
20260504170504 21 152 0.0 0.0 0.00 0.00 0.00 24 1008.8
20260504151004 18 160 0.0 0.0 0.00 0.00 0.00 33 1009.1
20260504150503 18 157 0.0 0.0 0.00 0.00 0.00 33 1009.1
20260504141004 16 174 0.0 0.0 0.00 0.00 0.00 36 1009.3
20260504140504 16 161 0.0 0.0 0.00 0.00 0.00 37 1009.3
20260504130504 14 138 0.0 0.0 0.00 0.00 0.00 36 1009.3
20260504100503 13 128 0.0 0.0 0.00 0.00 0.00 43 1008.8